Location: Hac?musa Deresi
(39.1694°N, 32.2508°E)
Time: 01:02:19
(UTC+00:00)

IRAS Rocket - Pass Details

Date: 22 April 2026
Orbit: 845 x 876 km, 100.1° (Epoch: 9 May)

Event Time Altitude Azimuth Distance (km) Brightness Sun altitude
Exits shadow 17:49:53 - 167° (SSE) 2,703 6.4 -14.1°
Reaches altitude 10° 17:50:29 10° 167° (SSE) 2,470 6.2 -14.2°
Maximum altitude 17:55:57 81° 255° (WSW) 863 4.3 -15.2°
Drops below altitude 10° 18:01:27 10° 343° (NNW) 2,475 7.3 -16.1°
Sets 18:03:49 0° 344° (NNW) 3,413 8.1 -16.5°
